GW6860 Weather Reports


time (UTC)temp
C
wind
direction
speed
KPH
gust
KPH
rain 1hr
cm
rain 24hr
cm
rain mn
cm
humidity
%
barometer
mb
20260505152934 13 223 1.6 3.2 0.00 0.00 0.00 88 1010.1
20260505152431 13 126 3.2 3.2 0.00 0.00 0.00 84 1010.1
20260505151931 12 128 0.0 1.6 0.00 0.00 0.00 85 1010.1
20260505151427 12 168 0.0 0.0 0.00 0.00 0.00 87 1010.1
20260505150925 12 196 0.0 0.0 0.00 0.00 0.00 87 1010.1
20260505150422 12 64 0.0 0.0 0.00 0.00 0.00 88 1010.1
20260505140351 10 113 0.0 0.0 0.00 0.00 0.00 93 1010.1
20260505124805 10 15 0.0 1.6 0.00 0.00 0.00 95 1009.8
20260505124302 10 44 1.6 3.2 0.00 0.00 0.00 95 1009.4
20260505123758 10 36 3.2 3.2 0.00 0.00 0.00 95 1009.8
20260505123254 10 18 3.2 3.2 0.00 0.00 0.00 95 1009.8
20260505122751 10 66 0.0 0.0 0.00 0.00 0.00 95 1009.4
20260505122248 10 68 1.6 1.6 0.00 0.00 0.00 95 1009.4
20260505121745 10 55 4.8 4.8 0.00 0.00 0.00 95 1009.8
20260505121242 10 5 0.0 0.0 0.00 0.00 0.00 96 1009.8
20260505120738 10 30 3.2 3.2 0.00 0.00 0.00 96 1009.8
20260505120234 10 39 3.2 3.2 0.00 0.00 0.00 96 1009.8
20260505115733 10 34 3.2 4.8 0.00 0.00 0.00 96 1009.8
20260505115231 10 14 3.2 3.2 0.00 0.00 0.00 96 1009.8
20260505114728 10 7 1.6 3.2 0.00 0.00 0.00 97 1009.8
20260505114223 10 41 3.2 4.8 0.00 0.00 0.00 97 1009.8
20260505113720 10 29 1.6 3.2 0.00 0.00 0.00 98 1009.8
20260505113217 10 40 3.2 4.8 0.00 0.00 0.00 97 1009.8
20260505112714 10 39 1.6 1.6 0.00 0.00 0.00 97 1009.8
20260505112212 10 31 3.2 3.2 0.00 0.00 0.00 96 1009.8
20260505111711 10 20 0.0 0.0 0.00 0.00 0.00 96 1009.8
20260505111207 10 23 0.0 0.0 0.00 0.00 0.00 96 1009.8
20260505110703 10 15 1.6 3.2 0.00 0.00 0.00 95 1009.8
20260505110201 10 7 1.6 3.2 0.00 0.00 0.00 96 1009.8
20260505102136 11 11 0.0 0.0 0.00 0.00 0.00 96 1009.8
20260505101635 11 18 0.0 0.0 0.00 0.00 0.00 95 1009.8
20260505101131 11 27 0.0 0.0 0.00 0.00 0.00 95 1009.8
20260505100627 11 13 0.0 0.0 0.00 0.00 0.00 95 1010.1
20260505100124 11 40 0.0 0.0 0.00 0.00 0.00 94 1009.8
20260505095620 12 48 0.0 0.0 0.00 0.00 0.00 94 1009.8
20260505095117 12 48 0.0 0.0 0.00 0.00 0.00 94 1009.8
20260505094614 12 48 0.0 0.0 0.00 0.00 0.00 94 1009.8
20260505094110 12 48 0.0 0.0 0.00 0.00 0.00 94 1009.8
20260505093606 12 28 0.0 0.0 0.00 0.00 0.00 93 1010.1
20260505093104 12 36 0.0 0.0 0.00 0.00 0.00 93 1010.1
20260505092601 12 113 0.0 0.0 0.00 0.00 0.00 92 1010.1
20260505092100 12 113 0.0 0.0 0.00 0.00 0.00 92 1010.4
20260505091555 12 113 0.0 0.0 0.00 0.00 0.00 92 1010.1
20260505091054 12 117 0.0 0.0 0.00 0.00 0.00 92 1010.4
20260505090552 12 117 0.0 0.0 0.00 0.00 0.00 92 1010.4
20260505090049 12 117 0.0 0.0 0.00 0.00 0.00 93 1010.4
20260505085547 12 112 0.0 1.6 0.00 0.00 0.00 93 1010.4
20260505085045 12 144 0.0 1.6 0.00 0.00 0.00 93 1010.8
20260505084543 12 140 1.6 1.6 0.00 0.00 0.00 92 1010.8
20260505084041 12 111 0.0 1.6 0.00 0.00 0.00 93 1010.8
20260505083537 12 137 0.0 0.0 0.00 0.00 0.00 92 1010.8
20260505083034 12 103 0.0 0.0 0.00 0.00 0.00 92 1010.8
20260505082530 12 117 1.6 3.2 0.00 0.00 0.00 92 1010.8
20260505082027 12 98 0.0 0.0 0.00 0.00 0.00 92 1010.8
20260505081523 12 96 0.0 0.0 0.00 0.00 0.00 92 1010.8
20260505081020 12 102 0.0 0.0 0.00 0.00 0.00 92 1010.8
20260505080517 12 83 1.6 1.6 0.00 0.00 0.00 92 1010.8
20260505080013 12 84 0.0 0.0 0.00 0.00 0.00 92 1010.8
20260505075509 12 84 0.0 0.0 0.00 0.00 0.00 92 1010.8
20260505075006 12 84 0.0 0.0 0.00 0.00 0.00 91 1011.1
20260505074504 12 84 0.0 0.0 0.00 0.00 0.00 91 1010.8
20260505074001 12 84 0.0 0.0 0.00 0.00 0.00 91 1011.1
20260505073458 12 327 0.0 0.0 0.00 0.00 0.00 91 1011.1
20260505072955 12 327 0.0 1.6 0.00 0.00 0.00 91 1011.1
20260505072451 12 327 0.0 0.0 0.00 0.00 0.00 90 1010.8
20260505071948 12 327 0.0 0.0 0.00 0.00 0.00 90 1011.1
20260505071443 12 326 0.0 0.0 0.00 0.00 0.00 90 1011.1
20260505070942 12 327 0.0 0.0 0.00 0.00 0.00 90 1011.1
20260505070438 12 327 0.0 0.0 0.00 0.00 0.00 90 1011.1
20260505065934 12 327 0.0 0.0 0.00 0.00 0.00 90 1011.1
20260505065431 12 327 0.0 0.0 0.00 0.00 0.00 90 1011.1
20260505064927 12 327 0.0 0.0 0.00 0.00 0.00 90 1011.1
20260505064425 12 326 0.0 0.0 0.00 0.00 0.00 91 1011.1
20260505063923 12 326 0.0 0.0 0.00 0.00 0.00 91 1011.1
20260505063419 12 327 0.0 0.0 0.00 0.00 0.00 91 1011.1
20260505062915 12 327 0.0 0.0 0.00 0.00 0.00 91 1011.1
20260505062413 12 327 0.0 0.0 0.00 0.00 0.00 91 1011.1
20260505061909 12 326 0.0 0.0 0.00 0.00 0.00 91 1011.1
20260505061408 12 326 0.0 0.0 0.00 0.00 0.00 91 1011.1
20260505060905 12 327 0.0 0.0 0.00 0.00 0.00 91 1011.5
20260505060402 12 308 0.0 0.0 0.00 0.00 0.00 91 1011.1
20260505055858 12 251 0.0 0.0 0.00 0.00 0.00 91 1011.1
20260505055354 12 214 0.0 0.0 0.00 0.00 0.00 91 1011.1
20260505054851 12 215 0.0 0.0 0.00 0.00 0.00 91 1011.1
20260505054348 12 211 0.0 0.0 0.00 0.00 0.00 91 1011.1
20260505053847 12 186 0.0 0.0 0.00 0.00 0.00 91 1011.1
20260505053343 12 185 0.0 0.0 0.00 0.00 0.00 90 1011.1
20260505052840 12 239 0.0 0.0 0.00 0.00 0.00 90 1011.1
20260505052337 12 221 0.0 0.0 0.00 0.00 0.00 90 1011.1
20260505051834 12 219 0.0 0.0 0.00 0.00 0.00 89 1011.1
20260505051331 12 244 0.0 0.0 0.00 0.00 0.00 89 1011.5
20260505050829 12 223 0.0 0.0 0.00 0.00 0.00 89 1011.5
20260505050328 12 227 0.0 0.0 0.00 0.00 0.00 88 1011.1
20260505041757 12 154 0.0 0.0 0.00 0.00 0.00 86 1011.1
20260505041255 13 209 0.0 0.0 0.00 0.00 0.00 86 1011.1
20260505040752 13 131 0.0 1.6 0.00 0.00 0.00 87 1011.1
20260505040249 13 219 0.0 0.0 0.00 0.00 0.00 87 1011.1
20260505035746 13 162 0.0 0.0 0.00 0.00 0.00 88 1011.1
20260505035242 13 157 0.0 0.0 0.00 0.00 0.00 88 1011.1
20260505034739 13 230 0.0 0.0 0.00 0.00 0.00 88 1010.8
20260505034236 13 157 0.0 0.0 0.00 0.00 0.00 88 1010.8
20260505033732 13 102 0.0 0.0 0.00 0.00 0.00 87 1011.1
20260505033230 13 207 1.6 3.2 0.00 0.00 0.00 87 1011.1
20260505032728 13 35 0.0 1.6 0.00 0.00 0.00 88 1011.1
20260505032224 13 52 1.6 3.2 0.00 0.00 0.00 90 1011.1
20260505031721 13 108 1.6 1.6 0.00 0.00 0.00 90 1010.8
20260505031217 13 196 0.0 1.6 0.00 0.00 0.00 90 1010.8
20260505030715 13 206 0.0 1.6 0.00 0.00 0.00 90 1010.8
20260505030210 13 113 0.0 0.0 0.00 0.00 0.00 89 1010.8
20260505025707 13 199 0.0 1.6 0.00 0.00 0.00 89 1010.4
20260505025205 13 143 0.0 0.0 0.00 0.00 0.00 88 1010.4
20260505024703 13 247 0.0 0.0 0.00 0.00 0.00 87 1010.4
20260505024159 14 299 0.0 1.6 0.00 0.00 0.00 86 1010.4
20260505023657 14 151 0.0 0.0 0.00 0.00 0.00 86 1010.4
20260505023154 14 208 0.0 0.0 0.00 0.00 0.00 85 1010.4
20260505022652 15 53 0.0 1.6 0.00 0.00 0.00 85 1010.8
20260505022149 15 275 1.6 3.2 0.00 0.00 0.00 84 1010.4
20260505021645 15 120 1.6 3.2 0.00 0.00 0.00 83 1010.4
20260505021142 15 122 0.0 0.0 0.00 0.00 0.00 83 1010.4
20260505020637 15 213 0.0 0.0 0.00 0.00 0.00 83 1010.4
20260505020133 15 197 0.0 0.0 0.00 0.00 0.00 83 1010.4
20260505015631 16 278 0.0 0.0 0.00 0.00 0.00 82 1010.8
20260505015127 16 120 1.6 4.8 0.00 0.00 0.00 81 1010.4
20260505014624 16 209 0.0 1.6 0.00 0.00 0.00 81 1010.4
20260505014121 16 251 0.0 1.6 0.00 0.00 0.00 80 1010.4
20260505013619 16 55 0.0 0.0 0.00 0.00 0.00 78 1010.8
20260505013116 15 346 3.2 4.8 0.00 0.00 0.00 77 1010.8
20260505012614 15 54 3.2 3.2 0.00 0.00 0.00 79 1010.8
20260505012111 15 193 0.0 0.0 0.00 0.00 0.00 80 1010.8
20260505011606 15 99 0.0 0.0 0.00 0.00 0.00 81 1010.8
20260505011104 15 171 0.0 0.0 0.00 0.00 0.00 83 1010.8
20260505010604 15 233 1.6 1.6 0.00 0.00 0.00 84 1011.1
20260505005557 16 219 1.6 1.6 0.00 0.00 0.00 84 1011.1
20260505005055 16 250 3.2 3.2 0.00 0.00 0.00 82 1011.1
20260505004552 16 253 4.8 8.0 0.00 0.00 0.00 81 1011.1
20260505004049 16 232 1.6 3.2 0.00 0.00 0.00 80 1010.8
20260505003546 16 234 4.8 4.8 0.00 0.00 0.00 81 1010.8
20260505003043 17 239 6.4 9.7 0.00 0.00 0.00 79 1011.1
20260505002543 17 245 6.4 9.7 0.00 0.00 0.00 75 1010.8
20260505002043 17 216 0.0 1.6 0.00 0.00 0.00 75 1010.8
20260505001540 17 291 0.0 1.6 0.00 0.00 0.00 76 1010.8
20260505001037 17 228 6.4 12.9 0.00 0.00 0.00 74 1010.8
20260505000534 17 233 1.6 1.6 0.00 0.00 0.00 72 1010.4
20260505000032 18 253 8.0 11.3 0.00 0.00 0.00 72 1010.4
20260504235528 18 239 8.0 9.7 0.00 0.00 0.00 73 1010.4
20260504235025 18 259 8.0 11.3 0.00 0.00 0.00 70 1010.4
20260504234522 18 222 6.4 9.7 0.00 0.00 0.00 69 1010.4
20260504234019 18 268 4.8 9.7 0.00 0.00 0.00 67 1010.4
20260504233514 18 62 0.0 1.6 0.00 0.00 0.00 66 1010.4
20260504233011 18 245 1.6 1.6 0.00 0.00 0.00 68 1010.4
20260504232508 18 213 1.6 3.2 0.00 0.00 0.00 67 1010.8
20260504232006 18 86 0.0 1.6 0.00 0.00 0.00 68 1010.4
20260504231502 18 319 3.2 9.7 0.00 0.00 0.00 67 1010.8
20260504230958 18 230 0.0 1.6 0.00 0.00 0.00 65 1010.4
20260504230455 18 21 4.8 4.8 0.00 0.00 0.00 68 1010.8
20260504225954 18 202 0.0 3.2 0.00 0.00 0.00 66 1010.8
20260504225450 18 236 4.8 8.0 0.00 0.00 0.00 71 1010.8
20260504224947 18 275 3.2 3.2 0.00 0.00 0.00 70 1010.8
20260504224444 18 17 6.4 11.3 0.00 0.00 0.00 71 1010.8
20260504223941 19 295 9.7 16.1 0.00 0.00 0.00 66 1010.8
20260504223437 19 243 4.8 8.0 0.00 0.00 0.00 65 1011.1
20260504222933 19 236 8.0 12.9 0.00 0.00 0.00 61 1011.1
20260504222431 20 248 11.3 16.1 0.00 0.00 0.00 67 1011.1
20260504221928 20 256 4.8 4.8 0.00 0.00 0.00 64 1011.1
20260504221425 20 275 3.2 4.8 0.00 0.00 0.00 62 1011.1
20260504220922 20 95 3.2 3.2 0.00 0.00 0.00 61 1011.1
20260504220419 20 253 3.2 4.8 0.00 0.00 0.00 65 1011.5
20260504215916 20 247 9.7 11.3 0.00 0.00 0.00 62 1011.5
20260504215413 20 227 1.6 3.2 0.00 0.00 0.00 64 1011.5
20260504214909 20 246 4.8 4.8 0.00 0.00 0.00 61 1011.5
20260504214405 20 212 1.6 3.2 0.00 0.00 0.00 63 1011.5
20260504213902 20 7 1.6 3.2 0.00 0.00 0.00 66 1011.5
20260504213358 20 233 11.3 16.1 0.00 0.00 0.00 61 1011.5
20260504212855 20 242 1.6 1.6 0.00 0.00 0.00 61 1011.5
20260504212351 20 230 3.2 4.8 0.00 0.00 0.00 58 1011.5
20260504211849 20 334 6.4 12.9 0.00 0.00 0.00 62 1011.5
20260504211345 20 257 4.8 4.8 0.00 0.00 0.00 63 1011.5
20260504210843 20 232 6.4 9.7 0.00 0.00 0.00 60 1011.5
20260504210339 20 312 4.8 8.0 0.00 0.00 0.00 59 1011.5
20260504205837 20 192 3.2 4.8 0.00 0.00 0.00 56 1011.5
20260504205335 20 245 4.8 8.0 0.00 0.00 0.00 57 1011.5
20260504204832 20 212 8.0 11.3 0.00 0.00 0.00 60 1011.5
20260504204331 20 247 6.4 9.7 0.00 0.00 0.00 56 1011.1
20260504203830 20 292 6.4 14.5 0.00 0.00 0.00 56 1011.5
20260504203326 20 256 4.8 8.0 0.00 0.00 0.00 54 1011.5
20260504202822 20 200 1.6 3.2 0.00 0.00 0.00 55 1011.1
20260504202320 20 148 0.0 1.6 0.00 0.00 0.00 58 1011.5
20260504201816 20 247 6.4 9.7 0.00 0.00 0.00 59 1011.5
20260504201313 20 235 3.2 4.8 0.00 0.00 0.00 59 1011.5
20260504200811 20 228 1.6 3.2 0.00 0.00 0.00 60 1011.5
20260504200307 20 311 3.2 4.8 0.00 0.00 0.00 55 1011.5
20260504195803 20 267 1.6 3.2 0.00 0.00 0.00 60 1011.5
20260504195259 20 245 9.7 11.3 0.00 0.00 0.00 60 1011.5
20260504194756 20 233 8.0 12.9 0.00 0.00 0.00 61 1011.5
20260504194252 20 232 4.8 4.8 0.00 0.00 0.00 63 1011.5
20260504193748 20 216 0.0 0.0 0.00 0.00 0.00 55 1011.5
20260504193246 20 237 1.6 1.6 0.00 0.00 0.00 60 1011.5
20260504192744 20 225 6.4 8.0 0.00 0.00 0.00 55 1011.5
20260504192242 20 205 1.6 3.2 0.00 0.00 0.00 57 1011.5
20260504191741 20 240 3.2 4.8 0.00 0.00 0.00 58 1011.5
20260504191237 20 237 1.6 3.2 0.00 0.00 0.00 59 1011.5
20260504190733 20 262 1.6 3.2 0.00 0.00 0.00 57 1011.5
20260504190229 20 237 3.2 3.2 0.00 0.00 0.00 56 1011.5
20260504185726 20 225 3.2 4.8 0.00 0.00 0.00 54 1011.8
20260504185223 20 219 0.0 1.6 0.00 0.00 0.00 56 1011.5
20260504184719 20 355 3.2 4.8 0.00 0.00 0.00 55 1011.5
20260504184215 20 272 4.8 4.8 0.00 0.00 0.00 58 1011.5
20260504183711 20 228 0.0 1.6 0.00 0.00 0.00 60 1011.8
20260504183208 20 246 1.6 1.6 0.00 0.00 0.00 59 1011.8
20260504182706 19 226 3.2 3.2 0.00 0.00 0.00 60 1011.8
20260504182203 20 230 4.8 4.8 0.00 0.00 0.00 59 1011.8
20260504181700 19 248 1.6 4.8 0.00 0.00 0.00 55 1012.1
20260504181158 18 240 3.2 3.2 0.00 0.00 0.00 56 1011.8
20260504180657 18 208 0.0 1.6 0.00 0.00 0.00 64 1011.8
20260504180155 18 233 12.9 17.7 0.00 0.00 0.00 61 1011.8
20260504175652 18 224 6.4 11.3 0.00 0.00 0.00 59 1011.8
20260504175148 18 242 4.8 9.7 0.00 0.00 0.00 60 1011.8
20260504174647 17 210 3.2 4.8 0.00 0.00 0.00 60 1011.8
20260504174143 17 249 9.7 12.9 0.00 0.00 0.00 64 1011.8
20260504173640 17 226 3.2 4.8 0.00 0.00 0.00 64 1011.8
20260504173138 17 227 1.6 3.2 0.00 0.00 0.00 62 1011.8
20260504172634 17 193 4.8 9.7 0.00 0.00 0.00 67 1011.5
20260504172131 17 308 3.2 4.8 0.00 0.00 0.00 67 1011.8
20260504171627 17 260 4.8 8.0 0.00 0.00 0.00 72 1011.8
20260504171125 17 159 0.0 1.6 0.00 0.00 0.00 74 1011.5
20260504170621 17 243 8.0 11.3 0.00 0.00 0.00 71 1011.5
20260504170118 17 290 1.6 3.2 0.00 0.00 0.00 71 1011.5